| time (UTC) | temp C | wind direction | speed KPH | gust KPH | rain 1hr cm | rain 24hr cm | rain mn cm | humidity % | barometer mb |
| 20260506175042 | 16 | 288 | 9.7 | 19.3 | 0.00 | 0.15 | 0.15 | 94 | 1011.7 |
| 20260506174013 | 16 | 297 | 9.7 | 16.1 | 0.00 | 0.15 | 0.15 | 93 | 1011.8 |
| 20260506173033 | 16 | 316 | 9.7 | 16.1 | 0.00 | 0.15 | 0.15 | 94 | 1011.6 |
| 20260506172055 | 16 | 322 | 8.0 | 12.9 | 0.00 | 0.15 | 0.15 | 95 | 1011.4 |
| 20260506165924 | 16 | 43 | 6.4 | 16.1 | 0.00 | 0.15 | 0.15 | 97 | 1010.6 |
| 20260506164941 | 15 | 327 | 8.0 | 16.1 | 0.00 | 0.15 | 0.15 | 97 | 1010.7 |
| 20260506163932 | 15 | 351 | 6.4 | 12.9 | 0.00 | 0.15 | 0.15 | 96 | 1011.0 |
| 20260506162858 | 15 | 58 | 8.0 | 16.1 | 0.00 | 0.15 | 0.15 | 97 | 1011.3 |
| 20260506161923 | 14 | 57 | 8.0 | 20.9 | 0.00 | 0.15 | 0.15 | 97 | 1011.4 |
| 20260506160856 | 13 | 328 | 9.7 | 20.9 | 0.00 | 0.15 | 0.15 | 96 | 1011.2 |
| 20260506155832 | 13 | 9 | 8.0 | 16.1 | 0.00 | 0.15 | 0.15 | 96 | 1011.6 |
| 20260506154852 | 13 | 279 | 11.3 | 20.9 | 0.00 | 0.15 | 0.15 | 95 | 1012.4 |
| 20260506153839 | 13 | 322 | 11.3 | 27.4 | 0.15 | 0.15 | 0.15 | 95 | 1012.2 |
| 20260506152843 | 14 | 289 | 14.5 | 27.4 | 0.23 | 0.10 | 0.13 | 95 | 1012.2 |
| 20260506151812 | 15 | 279 | 9.7 | 33.8 | 0.00 | 0.05 | 0.05 | 95 | 1012.8 |
| 20260506150808 | 15 | 261 | 16.1 | 33.8 | 0.00 | 0.05 | 0.05 | 94 | 1013.1 |
| 20260506145758 | 16 | 301 | 14.5 | 29.0 | 0.00 | 0.05 | 0.05 | 95 | 1011.5 |
| 20260506144756 | 16 | 304 | 12.9 | 29.0 | 0.00 | 0.05 | 0.05 | 95 | 1011.1 |
| 20260506143752 | 16 | 337 | 12.9 | 24.1 | 0.00 | 0.05 | 0.05 | 95 | 1010.2 |
| 20260506142810 | 16 | 300 | 12.9 | 29.0 | 0.00 | 0.05 | 0.05 | 95 | 1010.8 |
| 20260506135606 | 17 | 334 | 11.3 | 22.5 | 0.00 | 0.05 | 0.05 | 95 | 1009.7 |
| 20260506133443 | 18 | 332 | 12.9 | 17.7 | 0.00 | 0.05 | 0.05 | 96 | 1009.4 |
| 20260506132419 | 18 | 346 | 11.3 | 17.7 | 0.00 | 0.05 | 0.05 | 96 | 1009.3 |
| 20260506131359 | 19 | 318 | 9.7 | 22.5 | 0.00 | 0.05 | 0.05 | 96 | 1009.2 |
| 20260506130337 | 20 | 304 | 8.0 | 22.5 | 0.00 | 0.05 | 0.05 | 95 | 1008.8 |
| 20260506125341 | 22 | 348 | 0.0 | 4.8 | 0.00 | 0.05 | 0.05 | 97 | 1008.3 |
| 20260506124402 | 22 | 284 | 0.0 | 1.6 | 0.00 | 0.05 | 0.05 | 97 | 1008.2 |
| 20260506123401 | 22 | 284 | 0.0 | 0.0 | 0.00 | 0.03 | 0.03 | 96 | 1008.3 |
| 20260506121252 | 22 | 148 | 0.0 | 1.6 | 0.00 | 0.03 | 0.03 | 96 | 1007.9 |
| 20260506120240 | 22 | 148 | 0.0 | 0.0 | 0.00 | 0.03 | 0.03 | 96 | 1007.8 |
| 20260506115244 | 22 | 148 | 0.0 | 0.0 | 0.00 | 0.03 | 0.03 | 95 | 1007.8 |
| 20260506114239 | 22 | 148 | 0.0 | 0.0 | 0.00 | 0.03 | 0.03 | 96 | 1007.7 |
| 20260506113213 | 22 | 148 | 0.0 | 3.2 | 0.00 | 0.03 | 0.03 | 95 | 1007.8 |
| 20260506111012 | 22 | 148 | 0.0 | 0.0 | 0.00 | 0.03 | 0.03 | 95 | 1008.0 |
| 20260506110037 | 22 | 148 | 0.0 | 3.2 | 0.00 | 0.03 | 0.03 | 95 | 1008.0 |
| 20260506103913 | 23 | 148 | 0.0 | 4.8 | 0.00 | 0.03 | 0.03 | 95 | 1007.8 |
| 20260506102852 | 23 | 148 | 0.0 | 4.8 | 0.00 | 0.03 | 0.03 | 94 | 1007.8 |
| 20260506101858 | 23 | 148 | 0.0 | 1.6 | 0.00 | 0.00 | 0.00 | 94 | 1007.5 |
| 20260506100907 | 23 | 148 | 0.0 | 1.6 | 0.00 | 0.00 | 0.00 | 93 | 1007.6 |
| 20260506095912 | 23 | 148 | 0.0 | 0.0 | 0.00 | 0.00 | 0.00 | 93 | 1007.5 |
| 20260506094912 | 23 | 148 | 0.0 | 1.6 | 0.00 | 0.00 | 0.00 | 93 | 1007.2 |
| 20260506093849 | 23 | 148 | 0.0 | 0.0 | 0.00 | 0.00 | 0.00 | 92 | 1007.2 |
| 20260506092844 | 23 | 148 | 0.0 | 0.0 | 0.00 | 0.00 | 0.00 | 92 | 1007.1 |
| 20260506091828 | 23 | 103 | 1.6 | 6.4 | 0.00 | 0.00 | 0.00 | 92 | 1006.8 |
| 20260506090758 | 23 | 136 | 0.0 | 8.0 | 0.00 | 0.00 | 0.00 | 91 | 1006.8 |
| 20260506083523 | 23 | 138 | 3.2 | 16.1 | 0.00 | 0.00 | 0.00 | 91 | 1006.6 |
| 20260506082449 | 23 | 136 | 4.8 | 14.5 | 0.00 | 0.00 | 0.00 | 91 | 1006.6 |
| 20260506081452 | 23 | 121 | 4.8 | 16.1 | 0.00 | 0.00 | 0.00 | 91 | 1006.6 |
| 20260506080426 | 23 | 150 | 6.4 | 16.1 | 0.00 | 0.00 | 0.00 | 91 | 1006.6 |
| 20260506073400 | 23 | 175 | 8.0 | 16.1 | 0.00 | 0.00 | 0.00 | 91 | 1006.7 |
| 20260506072404 | 23 | 126 | 6.4 | 16.1 | 0.00 | 0.00 | 0.00 | 91 | 1006.9 |
| 20260506071404 | 23 | 149 | 4.8 | 16.1 | 0.00 | 0.00 | 0.00 | 91 | 1007.0 |
| 20260506070411 | 23 | 211 | 6.4 | 17.7 | 0.00 | 0.00 | 0.00 | 91 | 1006.8 |
| 20260506062258 | 23 | 110 | 8.0 | 24.1 | 0.00 | 0.00 | 0.00 | 91 | 1006.5 |
| 20260506061230 | 23 | 94 | 8.0 | 19.3 | 0.00 | 0.00 | 0.00 | 91 | 1006.6 |
| 20260506060157 | 23 | 123 | 8.0 | 22.5 | 0.00 | 0.00 | 0.00 | 91 | 1006.4 |
| 20260506050932 | 23 | 104 | 8.0 | 19.3 | 0.00 | 0.00 | 0.00 | 91 | 1006.6 |
| 20260506044943 | 23 | 132 | 6.4 | 12.9 | 0.00 | 0.00 | 0.00 | 91 | 1006.5 |
| 20260506043946 | 23 | 107 | 4.8 | 12.9 | 0.00 | 0.00 | 0.00 | 91 | 1006.6 |
| 20260506042954 | 23 | 101 | 4.8 | 12.9 | 0.00 | 0.00 | 0.00 | 90 | 1006.6 |
| 20260506042015 | 23 | 115 | 3.2 | 12.9 | 0.00 | 0.00 | 0.00 | 90 | 1006.5 |
| 20260506041038 | 23 | 96 | 3.2 | 8.0 | 0.00 | 0.00 | 0.00 | 89 | 1006.4 |
| 20260506040053 | 24 | 105 | 1.6 | 6.4 | 0.00 | 0.00 | 0.00 | 89 | 1006.4 |
| 20260506035035 | 24 | 113 | 3.2 | 8.0 | 0.00 | 0.00 | 0.00 | 89 | 1006.6 |
| 20260506034027 | 24 | 140 | 1.6 | 8.0 | 0.00 | 0.00 | 0.00 | 89 | 1006.2 |
| 20260506033015 | 24 | 130 | 3.2 | 6.4 | 0.00 | 0.00 | 0.00 | 88 | 1005.9 |
| 20260506032017 | 24 | 119 | 1.6 | 6.4 | 0.00 | 0.00 | 0.00 | 88 | 1006.2 |
| 20260506031008 | 24 | 84 | 0.0 | 8.0 | 0.00 | 0.00 | 0.00 | 87 | 1006.1 |
| 20260506025953 | 24 | 91 | 3.2 | 8.0 | 0.00 | 0.00 | 0.00 | 87 | 1005.6 |
| 20260506024954 | 24 | 84 | 1.6 | 8.0 | 0.00 | 0.00 | 0.00 | 87 | 1005.7 |
| 20260506023948 | 25 | 89 | 1.6 | 6.4 | 0.00 | 0.00 | 0.00 | 86 | 1005.4 |
| 20260506022938 | 25 | 126 | 1.6 | 6.4 | 0.00 | 0.00 | 0.00 | 85 | 1005.4 |
| 20260506021938 | 25 | 105 | 1.6 | 6.4 | 0.00 | 0.00 | 0.00 | 84 | 1005.2 |
| 20260506020914 | 25 | 85 | 1.6 | 8.0 | 0.00 | 0.00 | 0.00 | 83 | 1005.0 |
| 20260506015846 | 25 | 113 | 1.6 | 8.0 | 0.00 | 0.00 | 0.00 | 83 | 1004.9 |
| 20260506014821 | 25 | 128 | 3.2 | 8.0 | 0.00 | 0.00 | 0.00 | 82 | 1004.7 |
| 20260506012709 | 26 | 124 | 6.4 | 12.9 | 0.00 | 0.00 | 0.00 | 81 | 1004.4 |
| 20260506011648 | 26 | 120 | 4.8 | 12.9 | 0.00 | 0.00 | 0.00 | 80 | 1004.4 |
| 20260506010631 | 26 | 122 | 6.4 | 12.9 | 0.00 | 0.00 | 0.00 | 79 | 1004.5 |
| 20260506005623 | 27 | 113 | 6.4 | 16.1 | 0.00 | 0.00 | 0.00 | 79 | 1004.3 |
| 20260506004636 | 27 | 114 | 6.4 | 19.3 | 0.00 | 0.00 | 0.00 | 78 | 1004.3 |
| 20260506003609 | 27 | 113 | 8.0 | 19.3 | 0.00 | 0.00 | 0.00 | 77 | 1004.3 |
| 20260506002601 | 27 | 103 | 6.4 | 14.5 | 0.00 | 0.00 | 0.00 | 76 | 1004.3 |
| 20260506001532 | 28 | 127 | 8.0 | 17.7 | 0.00 | 0.00 | 0.00 | 76 | 1004.3 |
| 20260506000517 | 27 | 105 | 6.4 | 19.3 | 0.00 | 0.00 | 0.00 | 77 | 1004.5 |
| 20260505235511 | 27 | 127 | 8.0 | 19.3 | 0.00 | 0.00 | 0.00 | 76 | 1004.4 |
| 20260505234524 | 28 | 121 | 8.0 | 14.5 | 0.00 | 0.00 | 0.00 | 75 | 1004.5 |
| 20260505232358 | 28 | 117 | 8.0 | 17.7 | 0.00 | 0.00 | 0.00 | 74 | 1004.2 |
| 20260505231414 | 28 | 102 | 8.0 | 16.1 | 0.00 | 0.00 | 0.00 | 74 | 1004.1 |
| 20260505230357 | 28 | 109 | 9.7 | 16.1 | 0.00 | 0.00 | 0.00 | 73 | 1003.9 |
| 20260505225349 | 29 | 118 | 4.8 | 17.7 | 0.00 | 0.00 | 0.00 | 73 | 1003.9 |
| 20260505224407 | 29 | 114 | 8.0 | 17.7 | 0.00 | 0.00 | 0.00 | 73 | 1003.9 |
| 20260505223429 | 29 | 104 | 8.0 | 16.1 | 0.00 | 0.00 | 0.00 | 72 | 1003.8 |
| 20260505222413 | 29 | 105 | 8.0 | 17.7 | 0.00 | 0.00 | 0.00 | 72 | 1003.9 |
| 20260505221351 | 29 | 133 | 8.0 | 20.9 | 0.00 | 0.00 | 0.00 | 71 | 1004.0 |
| 20260505220327 | 30 | 117 | 9.7 | 20.9 | 0.00 | 0.00 | 0.00 | 71 | 1003.8 |
| 20260505215338 | 30 | 147 | 9.7 | 17.7 | 0.00 | 0.00 | 0.00 | 69 | 1004.0 |
| 20260505214351 | 30 | 128 | 6.4 | 14.5 | 0.00 | 0.00 | 0.00 | 69 | 1004.2 |
| 20260505213359 | 30 | 74 | 8.0 | 17.7 | 0.00 | 0.00 | 0.00 | 70 | 1004.1 |
| 20260505212344 | 30 | 141 | 9.7 | 19.3 | 0.00 | 0.00 | 0.00 | 69 | 1004.1 |
| 20260505211321 | 30 | 119 | 9.7 | 19.3 | 0.00 | 0.00 | 0.00 | 70 | 1004.2 |
| 20260505210321 | 30 | 104 | 9.7 | 17.7 | 0.00 | 0.00 | 0.00 | 70 | 1004.4 |
| 20260505205311 | 30 | 134 | 8.0 | 19.3 | 0.00 | 0.00 | 0.00 | 71 | 1004.8 |
| 20260505204322 | 30 | 98 | 9.7 | 22.5 | 0.00 | 0.00 | 0.00 | 70 | 1004.7 |
| 20260505203313 | 29 | 114 | 8.0 | 22.5 | 0.00 | 0.00 | 0.00 | 71 | 1004.8 |
| 20260505202258 | 29 | 84 | 11.3 | 20.9 | 0.00 | 0.00 | 0.00 | 70 | 1004.9 |
| 20260505201313 | 29 | 115 | 9.7 | 24.1 | 0.00 | 0.00 | 0.00 | 71 | 1005.0 |
| 20260505200322 | 28 | 148 | 8.0 | 24.1 | 0.00 | 0.00 | 0.00 | 73 | 1005.5 |
| 20260505195329 | 28 | 166 | 9.7 | 20.9 | 0.00 | 0.00 | 0.00 | 72 | 1005.4 |
| 20260505194354 | 28 | 92 | 8.0 | 20.9 | 0.00 | 0.00 | 0.00 | 72 | 1005.4 |
| 20260505193404 | 28 | 107 | 9.7 | 20.9 | 0.00 | 0.00 | 0.00 | 73 | 1005.5 |
| 20260505192408 | 28 | 163 | 9.7 | 20.9 | 0.00 | 0.00 | 0.00 | 73 | 1005.6 |
| 20260505191421 | 28 | 96 | 9.7 | 20.9 | 0.00 | 0.00 | 0.00 | 73 | 1005.7 |
| 20260505190348 | 28 | 146 | 9.7 | 20.9 | 0.00 | 0.00 | 0.00 | 75 | 1005.9 |
| 20260505184227 | 27 | 112 | 11.3 | 30.6 | 0.00 | 0.00 | 0.00 | 77 | 1006.2 |
| 20260505183212 | 26 | 163 | 14.5 | 30.6 | 0.00 | 0.00 | 0.00 | 76 | 1006.3 |
| 20260505182215 | 26 | 158 | 12.9 | 27.4 | 0.00 | 0.00 | 0.00 | 78 | 1006.5 |
| 20260505181213 | 26 | 110 | 12.9 | 27.4 | 0.00 | 0.00 | 0.00 | 78 | 1006.7 |
| 20260505180222 | 25 | 122 | 11.3 | 29.0 | 0.00 | 0.00 | 0.00 | 80 | 1006.9 |